Home > Weather > Portland > Past weeks

Flag for U.S.A. Weather for the Past 2 Weeks in Portland, Maine, U.S.A.

Now
27 °F

Clear.


Feels Like: 20 °F
Forecast: 30 / 40 °F
Wind: 7 mph from Southwest

Location: Portland - Portland International Jetport

Current Time: Feb 7, 2016 at 4:13:33 AM

Latest Report: Feb 7, 2016 at 3:51 AM


Visibility: 10 mi

Pressure: 30.10 "Hg

Humidity: 78%

Dew point: 21 °F

Location of PortlandLocation

Historic Weather in Portland — Graph

°F

Portland Temperature Yesterday

Maximum temperature yesterday: 35 °F (at 1:51 PM)
Minimum temperature yesterday: 13 °F (at 5:51 AM)
Average temperature yesterday: 26 °F

High & Low Weather Summary for the Past Weeks

 TemperatureHumidityPressure
High58 °F (Feb 1, 11:51 AM)100% (Feb 3, 10:51 PM)30.43 "Hg (Feb 3, 10:51 PM)
Low13 °F (Feb 6, 5:51 AM)28% (Jan 24, 2:51 PM)29.36 "Hg (Jan 29, 1:51 PM)
Average34 °F68%29.96 "Hg
* Reported Jan 23 2:51 AM — Feb 7 2:51 AM, Portland, Weather by CustomWeather, © 2016

Note: Actual official high and low records may vary slightly from our data, if they occured in-between our weather recording intervals... More about our weather records

Advertising

Portland Weather History for the Previous 24 Hours

 ConditionsComfort  
Time TempWeatherWind HumidityBarometerVisibility
2:51 AM
Sun, Feb 7
28 °FClear.7 mph78%30.10 "Hg10 mi
1:51 AM28 °FClear.7 mph78%30.13 "Hg10 mi
12:51 AM28 °FClear.7 mph81%30.14 "Hg10 mi
11:51 PM
Sat, Feb 6
29 °FPassing clouds.9 mph79%30.16 "Hg10 mi
10:51 PM30 °FPassing clouds.13 mph79%30.18 "Hg10 mi
9:51 PM31 °FPassing clouds.10 mph76%30.19 "Hg10 mi
8:51 PM32 °FPassing clouds.9 mph73%30.21 "Hg10 mi
7:51 PM32 °FPassing clouds.10 mph75%30.21 "Hg10 mi
6:51 PM32 °FPassing clouds.10 mph75%30.22 "Hg10 mi
5:51 PM33 °FPassing clouds.10 mph75%30.21 "Hg10 mi
4:51 PM34 °FPassing clouds.8 mph73%30.22 "Hg10 mi
3:51 PM35 °FScattered clouds.10 mph72%30.21 "Hg10 mi
2:51 PM35 °FScattered clouds.9 mph64%30.22 "Hg10 mi
1:51 PM35 °FScattered clouds.12 mph67%30.23 "Hg10 mi
12:51 PM33 °FScattered clouds.10 mph70%30.25 "Hg10 mi
11:51 AM32 °FScattered clouds.9 mph66%30.28 "Hg10 mi
10:51 AM29 °FPassing clouds.6 mph69%30.32 "Hg10 mi
9:51 AM26 °FPassing clouds.3 mph71%30.33 "Hg10 mi
8:51 AM22 °FPassing clouds.3 mph78%30.33 "Hg10 mi
7:51 AM13 °FPassing clouds.No wind92%30.33 "Hg10 mi
6:51 AM13 °FPassing clouds.No wind88%30.31 "Hg10 mi
5:51 AM13 °FClear.3 mph92%30.30 "Hg10 mi
4:51 AM14 °FClear.No wind92%30.29 "Hg10 mi
Weather by CustomWeather, © 2016

See weather overviewHow to use our weather pages